This is the latest recevied weather packets stored in our database for station/object S57D-6. If no packets are shown the sender has not sent any weather packets the latest 10 day(s).
| Time | Temp. | Humidity | Pressure | Rain* | Wind** | Luminosity | Snow |
|---|---|---|---|---|---|---|---|
| 1777810157 | 25.56° C | 35% | 1016.2 hPa | 0 mm | - | - | - |
| 1777809856 | 25.56° C | 36% | 1016.2 hPa | 0 mm | - | - | - |
| 1777809557 | 25.56° C | 35% | 1016.1 hPa | 0 mm | - | - | - |
| 1777809255 | 26.11° C | 37% | 1016.2 hPa | 0 mm | - | - | - |
| 1777808956 | 25.56° C | 37% | 1016.2 hPa | 0 mm | - | - | - |
| 1777808655 | 25.56° C | 37% | 1016.3 hPa | 0 mm | - | - | - |
| 1777808355 | 25.56° C | 37% | 1016.4 hPa | 0 mm | - | - | - |
| 1777808054 | 25.56° C | 37% | 1016.5 hPa | 0 mm | - | - | - |
| 1777807755 | 25.56° C | 37% | 1016.5 hPa | 0 mm | - | - | - |
| 1777807454 | 25° C | 38% | 1016.4 hPa | 0 mm | - | - | - |
| 1777807154 | 25° C | 38% | 1016.5 hPa | 0 mm | - | - | - |
| 1777807029 | 25° C | 39% | 1016.6 hPa | 0 mm | - | - | - |
| 1777806853 | 25° C | 39% | 1016.6 hPa | 0 mm | - | - | - |
| 1777806558 | 25° C | 38% | 1016.6 hPa | 0 mm | - | - | - |
| 1777806253 | 25° C | 41% | 1016.6 hPa | 0 mm | - | - | - |
| 1777805953 | 25° C | 40% | 1016.7 hPa | 0 mm | - | - | - |
| 1777805652 | 24.44° C | 41% | 1016.8 hPa | 0 mm | - | - | - |
| 1777805353 | 24.44° C | 39% | 1017 hPa | 0 mm | - | - | - |
| 1777805051 | 24.44° C | 41% | 1017 hPa | 0 mm | - | - | - |
| 1777804755 | 23.89° C | 42% | 1017.1 hPa | 0 mm | - | - | - |
| 1777804451 | 23.89° C | 43% | 1017.1 hPa | 0 mm | - | - | - |
| 1777804152 | 23.89° C | 46% | 1017.2 hPa | 0 mm | - | - | - |
| 1777803850 | 23.89° C | 46% | 1017.2 hPa | 0 mm | - | - | - |
| 1777803250 | 23.33° C | 47% | 1017.4 hPa | 0 mm | - | - | - |
| 1777802950 | 22.78° C | 47% | 1017.4 hPa | 0 mm | - | - | - |
* Rain latest hour (hover to see other rain measurements)
** Current wind speed in m/s (hover to see current wind gust speed)